This demonstration page uses our WeatherBlox Daily Observations layout. Learn more.

36.17497, -115.13722

Hourly Observations for November 24, 2019

Temp ( °F °C ) Dew Point ( °F °C ) Humidity (%) Winds ( mph kmh ) Pressure ( in mb ) Visibility ( mi km ) Precip ( " mm )
12:53 am 00:53 Clear 50 10 32 0 50 50 NNW 8 13 30.26 1025 10 16.0934 0 0
1:53 am 01:53 Clear 47 8.3 32 0 56 56 WSW 5 7 30.26 1025 10 16.0934 0 0
2:53 am 02:53 Clear 46 7.8 31 -0.6 56 56 WSW 5 7 30.26 1025 10 16.0934 0 0
3:53 am 03:53 Clear 47 8.3 31 -0.6 54 54 NW 9 15 30.26 1025 10 16.0934 0 0
4:53 am 04:53 Clear 45 7.2 32 0 61 61 NNW 7 11 30.25 1024 10 16.0934 0 0
5:53 am 05:53 Clear 46 7.8 31 -0.6 56 56 NW 12 19 30.26 1025 10 16.0934 0 0
6:53 am 06:53 Sunny 46 7.8 31 -0.6 56 56 NNW 12 19 30.27 1025 10 16.0934 0 0
7:53 am 07:53 Sunny 49 9.4 32 0 52 52 NNW 8 13 30.28 1025 10 16.0934 0 0
8:53 am 08:53 Sunny 53 11.7 31 -0.6 43 43 WNW 7 11 30.27 1025 10 16.0934 0 0
9:53 am 09:53 Sunny 55 12.8 31 -0.6 40 40 NW 5 7 30.26 1025 10 16.0934 0 0
10:53 am 10:53 Sunny 58 14.4 31 -0.6 36 36 Calm 30.23 1024 10 16.0934 0 0
11:53 am 11:53 Sunny 59 15 31 -0.6 35 35 Calm 30.19 1023 10 16.0934 0 0
12:53 pm 12:53 Sunny 59 15 31 -0.6 35 35 Calm 30.16 1021 10 16.0934 0 0
1:53 pm 13:53 Sunny 62 16.7 32 0 32 32 Calm 30.14 1021 10 16.0934 0 0
2:53 pm 14:53 Sunny 61 16.1 31 -0.6 32 32 E 3 6 30.12 1020 10 16.0934 0 0
3:53 pm 15:53 Sunny 60 15.6 32 0 35 35 ESE 5 7 30.1 1019 10 16.0934 0 0
4:53 pm 16:53 Clear 57 13.9 34 1.1 42 42 E 5 7 30.09 1019 10 16.0934 0 0
5:53 pm 17:53 Clear 55 12.8 34 1.1 45 45 Calm 30.09 1019 10 16.0934 0 0
6:53 pm 18:53 Clear 52 11.1 35 1.7 53 53 NNW 6 9 30.09 1019 10 16.0934 0 0
7:53 pm 19:53 Clear 50 10 36 2.2 59 59 WNW 6 9 30.09 1019 10 16.0934 0 0
8:53 pm 20:53 Clear 50 10 35 1.7 57 57 Calm 30.06 1018 10 16.0934 0 0

Powered by AerisWeather